| time (UTC) | temp C | wind direction | speed KPH | gust KPH | rain 1hr cm | rain 24hr cm | rain mn cm | humidity % | barometer mb |
| 20260504033024 | 8 | 181 | 0.0 | 0.0 | 0.00 | 0.00 | 0.00 | 83 | 1021.8 |
| 20260504031525 | 8 | 175 | 1.6 | 4.8 | 0.00 | 0.00 | 0.00 | 83 | 1021.9 |
| 20260504030019 | 8 | 177 | 0.0 | 3.2 | 0.00 | 0.00 | 0.00 | 83 | 1022.0 |
| 20260504024518 | 8 | 178 | 0.0 | 3.2 | 0.00 | 0.00 | 0.00 | 82 | 1022.0 |
| 20260504023037 | 8 | 177 | 0.0 | 0.0 | 0.00 | 0.00 | 0.00 | 82 | 1022.2 |
| 20260504021535 | 8 | 174 | 0.0 | 1.6 | 0.00 | 0.00 | 0.00 | 81 | 1022.3 |
| 20260504020032 | 8 | 173 | 0.0 | 0.0 | 0.00 | 0.00 | 0.00 | 81 | 1022.2 |
| 20260504014531 | 9 | 360 | 0.0 | 3.2 | 0.00 | 0.00 | 0.00 | 81 | 1022.3 |
| 20260504013050 | 9 | 360 | 0.0 | 3.2 | 0.00 | 0.00 | 0.00 | 81 | 1022.3 |
| 20260504011526 | 9 | 360 | 0.0 | 1.6 | 0.00 | 0.00 | 0.00 | 80 | 1022.0 |
| 20260504010029 | 10 | 186 | 0.0 | 4.8 | 0.00 | 0.00 | 0.00 | 79 | 1022.1 |
| 20260504004527 | 10 | 217 | 1.6 | 4.8 | 0.00 | 0.00 | 0.00 | 79 | 1022.0 |
| 20260504003023 | 10 | 219 | 0.0 | 0.0 | 0.00 | 0.00 | 0.00 | 79 | 1022.0 |
| 20260504001525 | 10 | 223 | 0.0 | 6.4 | 0.00 | 0.00 | 0.00 | 79 | 1022.0 |
| 20260504000020 | 11 | 223 | 4.8 | 9.7 | 0.00 | 0.00 | 0.00 | 79 | 1022.1 |
| 20260503234522 | 11 | 238 | 11.3 | 16.1 | 0.00 | 0.00 | 0.00 | 79 | 1022.1 |
| 20260503233038 | 11 | 246 | 9.7 | 14.5 | 0.00 | 0.00 | 0.00 | 79 | 1022.3 |
| 20260503231514 | 11 | 245 | 6.4 | 14.5 | 0.00 | 0.00 | 0.00 | 78 | 1022.2 |
| 20260503230016 | 11 | 250 | 4.8 | 14.5 | 0.00 | 0.00 | 0.00 | 78 | 1022.3 |
| 20260503224515 | 11 | 250 | 8.0 | 14.5 | 0.00 | 0.00 | 0.00 | 77 | 1022.3 |
| 20260503223020 | 11 | 250 | 4.8 | 14.5 | 0.00 | 0.00 | 0.00 | 76 | 1022.3 |
| 20260503221521 | 12 | 252 | 9.7 | 16.1 | 0.00 | 0.00 | 0.00 | 75 | 1022.3 |
| 20260503220017 | 12 | 251 | 6.4 | 12.9 | 0.00 | 0.00 | 0.00 | 75 | 1022.2 |
| 20260503214515 | 12 | 265 | 8.0 | 16.1 | 0.00 | 0.00 | 0.00 | 74 | 1022.0 |
| 20260503213036 | 12 | 259 | 8.0 | 12.9 | 0.00 | 0.00 | 0.00 | 73 | 1021.8 |
| 20260503211524 | 13 | 250 | 3.2 | 4.8 | 0.00 | 0.00 | 0.00 | 72 | 1021.9 |
| 20260503210026 | 13 | 257 | 4.8 | 9.7 | 0.00 | 0.00 | 0.00 | 71 | 1021.8 |
| 20260503204521 | 13 | 232 | 6.4 | 8.0 | 0.00 | 0.00 | 0.00 | 70 | 1021.9 |
| 20260503203016 | 13 | 231 | 3.2 | 4.8 | 0.00 | 0.00 | 0.00 | 70 | 1021.6 |
| 20260503201559 | 14 | 233 | 3.2 | 9.7 | 0.00 | 0.00 | 0.00 | 68 | 1021.7 |
| 20260503200014 | 15 | 226 | 1.6 | 6.4 | 0.00 | 0.00 | 0.00 | 66 | 1021.5 |
| 20260503194549 | 15 | 229 | 0.0 | 3.2 | 0.00 | 0.00 | 0.00 | 65 | 1021.3 |
| 20260503193017 | 16 | 227 | 0.0 | 1.6 | 0.00 | 0.00 | 0.00 | 63 | 1021.2 |
| 20260503190028 | 16 | 213 | 0.0 | 9.7 | 0.00 | 0.00 | 0.00 | 61 | 1020.9 |
| 20260503184546 | 16 | 235 | 6.4 | 14.5 | 0.00 | 0.00 | 0.00 | 60 | 1020.6 |
| 20260503183023 | 17 | 246 | 8.0 | 19.3 | 0.00 | 0.00 | 0.00 | 60 | 1020.4 |
| 20260503181521 | 17 | 242 | 6.4 | 17.7 | 0.00 | 0.00 | 0.00 | 60 | 1020.4 |
| 20260503180022 | 17 | 217 | 9.7 | 19.3 | 0.00 | 0.00 | 0.00 | 59 | 1020.3 |
| 20260503174514 | 17 | 208 | 9.7 | 16.1 | 0.00 | 0.00 | 0.00 | 58 | 1020.1 |
| 20260503173011 | 17 | 226 | 8.0 | 16.1 | 0.00 | 0.00 | 0.00 | 57 | 1020.0 |
| 20260503171514 | 18 | 277 | 11.3 | 20.9 | 0.00 | 0.00 | 0.00 | 57 | 1019.9 |
| 20260503081516 | 14 | 160 | 0.0 | 1.6 | 0.00 | 0.00 | 0.00 | 53 | 1023.4 |
| 20260503071513 | 11 | 160 | 0.0 | 0.0 | 0.00 | 0.00 | 0.00 | 58 | 1024.1 |
| 20260503054524 | 7 | 275 | 0.0 | 0.0 | 0.00 | 0.00 | 0.00 | 74 | 1024.0 |
| 20260503053015 | 6 | 306 | 0.0 | 0.0 | 0.00 | 0.00 | 0.00 | 76 | 1024.0 |
| 20260503051514 | 5 | 321 | 0.0 | 0.0 | 0.00 | 0.00 | 0.00 | 78 | 1023.9 |
| 20260503050016 | 5 | 321 | 0.0 | 0.0 | 0.00 | 0.00 | 0.00 | 79 | 1023.9 |
| 20260503044532 | 5 | 320 | 0.0 | 0.0 | 0.00 | 0.00 | 0.00 | 78 | 1023.8 |
| 20260503043014 | 4 | 320 | 0.0 | 0.0 | 0.00 | 0.00 | 0.00 | 79 | 1023.7 |
| 20260503041518 | 4 | 360 | 0.0 | 0.0 | 0.00 | 0.00 | 0.00 | 79 | 1023.6 |
| 20260503040014 | 4 | 360 | 0.0 | 0.0 | 0.00 | 0.00 | 0.00 | 79 | 1023.4 |
| 20260503034529 | 4 | 360 | 0.0 | 0.0 | 0.00 | 0.00 | 0.00 | 79 | 1023.3 |